Regional Weather Roundup
Issued by NWS

Home | Current Version | Previous Version | Text Only | Print | Product List | Glossary On
Versions: 1 2 3 4 5 6 7 8 9 10 11 12 13 14 15 16 17 18 19 20 21 22 23 24 25 26 27 28 29 30 31 32 33 34 35 36 37 38 39 40 41 42 43 44 45 46 47 48 49 50
085
ASUS44 KOUN 102110
RWROK

WEATHER ROUNDUP FOR OKLAHOMA
NATIONAL WEATHER SERVICE NORMAN OK
300 PM CST SAT DEC 10 2016

NOTE: "FAIR" INDICATES FEW OR NO CLOUDS BELOW 12,000 FEET WITH NO
      SIGNIFICANT WEATHER AND/OR OBSTRUCTIONS TO VISIBILITY.

OKZ001>007-009>012-014-015-017-102200-
NORTHWEST OKLAHOMA AND THE PANHANDLE

CITY           SKY/WX    TMP DP  RH WIND       PRES   REMARKS
GAGE           CLOUDY    51  31  46 S20G28    29.94F
GUYMON         CLOUDY    68  29  23 S18G25    29.80F
ENID/WOODRING  MOSUNNY   48  27  43 SE22G31   30.07F
$$

OKZ016-021>023-033>039-044-045-102200-
SOUTHWEST OKLAHOMA

CITY           SKY/WX    TMP DP  RH WIND       PRES   REMARKS
LAWTON/REGL    CLOUDY    51  32  48 S17G29    30.13F
LAWTON/FT SILL CLOUDY    50  34  53 S25       30.10F
FREDERICK      SUNNY     53  35  50 S24       30.07F
CLINTON        SUNNY     49  32  52 S26G35    30.03F
HOBART         SUNNY     51  35  54 S28G36    30.06F
ALTUS AFB      SUNNY     53  32  45 S24       30.06F
$$

OKZ018>020-024>031-102200-
CENTRAL OKLAHOMA

CITY           SKY/WX    TMP DP  RH WIND       PRES   REMARKS
OKLAHOMA CITY  PTSUNNY   46  26  45 S23G31    30.10F
OKC/WILEY POST PTSUNNY   47  27  45 S25G31    30.10F
OKC/TINKER AFB CLOUDY    45  25  45 S18       30.10F
STILLWATER     CLOUDY    45  23  42 S23G30    30.13F
GUTHRIE        CLOUDY    46  26  45 S15G25    30.12F
$$

OKZ008-013-054>072-102200-
NORTHEAST OKLAHOMA

CITY           SKY/WX    TMP DP  RH WIND       PRES   REMARKS
TULSA          CLOUDY    45  20  36 S17G28    30.19F
TULSA/JONES    CLOUDY    45  19  35 S14G22    30.20F
PONCA CITY     CLOUDY    44  22  41 S17G25    30.11F
BARTLESVILLE   CLOUDY    45  19  35 S17G24    30.18F
MUSKOGEE       CLOUDY    46  17  31 S15G24    30.25F
$$

OKZ032-040>043-046>053-073>077-102200-
SOUTH CENTRAL/SOUTHEAST OKLAHOMA

CITY           SKY/WX    TMP DP  RH WIND       PRES   REMARKS
ARDMORE/DWNTWN CLOUDY    45  28  53 S15G22    30.21F
MCALESTER      CLOUDY    46  22  38 S9G20     30.24F
$$





USA.gov is the U.S. government's official web portal to all federal, state and local government web resources and services.